Location: Marcé
(47.5801°N, 0.3280°W)
Time: 17:23:31
(UTC+01:00)

SR - Pass Details

Date: 04 December 2021
Orbit: 582 x 872 km, 66.7° (Epoch: 22 January)

Event Time Altitude Azimuth Distance (km) Brightness Sun altitude
Rises 09:12:57 0° 323° (NW) 2,822 ? 4.7°
Reaches altitude 10° 09:15:10 10° 319° (NW) 1,931 ? 4.9°
Maximum altitude 09:19:25 61° 240° (WSW) 694 ? 5.5°
Drops below altitude 10° 09:23:53 10° 160° (SSE) 2,026 ? 6.0°
Sets 09:26:15 0° 157° (SSE) 2,974 ? 6.3°
